This demonstration page uses our WeatherBlox Daily Observations layout. Learn more.

Left ArrowRight Arrow

39.51506, -84.39828

Hourly Observations for May 16, 2022

Temp ( °F °C ) Dew Point ( °F °C ) Humidity (%) Winds ( mph kmh ) Pressure ( in mb ) Visibility ( mi km ) Precip ( " mm )
12:15 am 00:15 Mostly Cloudy 69 20.5 53 11.5 56 56 N 13 20 29.78 1009 10 16 0.00 0.00
12:35 am 00:35 Cloudy 68 20.2 53 11.5 58 58 NNW 12 19 29.79 1009 10 16 0.00 0.00
12:55 am 00:55 Cloudy with Nearby Thunderstorms 69 20.5 52 11 55 55 WNW 12 19 29.81 1010 10 16 0.00 0.00
1:15 am 01:15 Cloudy with Rain 64 17.5 56 13.1 76 76 NW 20 31 29.83 1010 7 11 0.05 1.27
1:35 am 01:35 Cloudy with Light Rain 62 16.7 57 14 84 84 NW 9 15 29.84 1011 10 16 0.05 1.27
1:55 am 01:55 Cloudy with Light Rain 61 16 58 14.7 92 92 N 17 28 29.83 1010 10 16 0.06 1.52
2:15 am 02:15 Cloudy with Thunderstorms 60 15.8 58 14.6 93 93 WNW 12 19 29.86 1011 10 16 0.00 0.00
2:35 am 02:35 Cloudy with Rain 60 15.4 59 14.9 97 97 NNW 10 17 29.87 1011 7 11 0.07 1.78
2:55 am 02:55 Cloudy with Rain 59 15.2 59 14.9 98 98 NNE 6 9 29.87 1011 7 11 0.12 3.05
3:15 am 03:15 Cloudy with Rain 58 14.7 58 14.3 97 97 N 9 15 29.84 1010 7 11 0.04 1.02
3:35 am 03:35 Cloudy with Nearby Thunderstorms 57 14 57 14 100 100 N 8 13 29.83 1010 7 11 0.09 2.29
3:55 am 03:55 Cloudy 57 14 N/A N/A NE 8 13 29.80 1009 10 16 0.09 2.29
4:15 am 04:15 Mostly Cloudy with Light Rain 57 14 N/A N/A N 6 9 29.79 1009 10 16 0.01 0.25
4:35 am 04:35 Partly Cloudy 57 14 N/A N/A NNW 7 11 29.79 1009 10 16 0.01 0.25
4:55 am 04:55 Clear 57 14 N/A N/A NNW 5 7 29.79 1009 10 16 0.01 0.25
5:15 am 05:15 Mostly Cloudy 57 14 N/A N/A Calm 29.80 1009 10 16 0.00 0.00
5:35 am 05:35 Cloudy 57 14 57 14 100 100 WNW 5 7 29.81 1009 10 16 0.00 0.00
5:55 am 05:55 Cloudy 57 14 57 13.8 99 99 NW 10 17 29.81 1009 10 16 0.00 0.00
6:15 am 06:15 Cloudy 57 13.9 57 13.7 99 99 NW 3 6 29.82 1010 10 16 0.00 0.00
6:35 am 06:35 Cloudy 57 13.9 56 13.4 97 97 NW 6 9 29.82 1010 10 16 0.00 0.00
6:55 am 06:55 Partly Cloudy 56 13.5 56 13.2 98 98 NW 5 7 29.83 1010 10 16 0.00 0.00
7:15 am 07:15 Sunny 56 13.6 56 13.5 99 99 Calm 29.84 1010 10 16 0.00 0.00
7:35 am 07:35 Sunny 58 14.2 57 13.9 98 98 W 6 9 29.86 1011 10 16 0.00 0.00
7:55 am 07:55 Mostly Cloudy 59 14.8 57 14 95 95 WNW 7 11 29.86 1011 10 16 0.00 0.00
8:15 am 08:15 Mostly Cloudy 59 15 56 13.4 90 90 WNW 7 11 29.88 1012 10 16 0.00 0.00
8:35 am 08:35 Mostly Cloudy 60 15.5 58 14.2 92 92 WNW 6 9 29.88 1012 10 16 0.00 0.00
8:55 am 08:55 Cloudy 60 15.3 56 13.4 89 89 WNW 10 17 29.88 1012 10 16 0.00 0.00
9:15 am 09:15 Mostly Cloudy 61 16.3 56 13.3 83 83 NW 9 15 29.88 1012 10 16 0.00 0.00
9:35 am 09:35 Mostly Cloudy 61 16.1 54 12.4 79 79 WNW 10 17 29.89 1012 10 16 0.00 0.00
9:55 am 09:55 Partly Cloudy 62 16.5 54 12.2 76 76 NW 8 13 29.89 1012 10 16 0.00 0.00
10:15 am 10:15 Partly Cloudy 64 17.8 54 12.3 70 70 NW 7 11 29.89 1012 10 16 0.00 0.00
10:35 am 10:35 Partly Cloudy 65 18.2 52 11 63 63 NNW 12 19 29.89 1012 10 16 0.00 0.00
10:55 am 10:55 Partly Cloudy 66 18.8 53 11.5 63 63 W 5 7 29.89 1012 10 16 0.00 0.00
11:15 am 11:15 Partly Cloudy 67 19.4 52 11.2 59 59 W 8 13 29.90 1012 10 16 0.00 0.00
11:35 am 11:35 Sunny 68 20.1 52 11 56 56 WNW 7 11 29.89 1012 10 16 0.00 0.00
11:55 am 11:55 Sunny 69 20.4 53 11.4 56 56 W 9 15 29.89 1012 10 16 0.00 0.00
12:15 pm 12:15 Sunny 70 21 53 11.9 56 56 W 12 19 29.89 1012 10 16 0.00 0.00
12:35 pm 12:35 Partly Cloudy 71 21.5 51 10.8 51 51 WSW 9 15 29.89 1012 10 16 0.00 0.00
12:55 pm 12:55 Sunny 71 21.9 50 9.8 46 46 W 10 17 29.89 1012 10 16 0.00 0.00
1:15 pm 13:15 Partly Cloudy 73 22.6 53 11.4 49 49 WSW 14 22 29.88 1012 10 16 0.00 0.00
1:35 pm 13:35 Partly Cloudy 73 22.9 50 10 44 44 WSW 14 22 29.87 1011 10 16 0.00 0.00
1:55 pm 13:55 Sunny 74 23.4 50 10.1 43 43 W 14 22 29.87 1011 10 16 0.00 0.00
2:15 pm 14:15 Partly Cloudy 75 23.9 48 8.9 39 39 W 18 30 29.87 1011 10 16 0.00 0.00
2:35 pm 14:35 Partly Cloudy 74 23.5 47 8.4 38 38 W 12 19 29.86 1011 10 16 0.00 0.00
2:55 pm 14:55 Mostly Cloudy 74 23.6 46 7.5 36 36 W 16 26 29.86 1011 10 16 0.00 0.00
3:15 pm 15:15 Mostly Cloudy 73 22.9 46 7.8 38 38 W 14 22 29.86 1011 10 16 0.00 0.00
3:35 pm 15:35 Partly Cloudy 75 24 43 5.9 31 31 WNW 14 22 29.86 1011 10 16 0.00 0.00
3:55 pm 15:55 Partly Cloudy 76 24.7 43 6.2 31 31 W 10 17 29.84 1011 10 16 0.00 0.00
4:15 pm 16:15 Partly Cloudy 76 24.5 41 4.8 28 28 W 16 26 29.84 1011 10 16 0.00 0.00
4:35 pm 16:35 Sunny 76 24.7 40 4.5 27 27 W 12 19 29.84 1011 10 16 0.00 0.00
4:55 pm 16:55 Sunny 76 24.5 40 4.3 27 27 W 14 22 29.83 1010 10 16 0.00 0.00
5:15 pm 17:15 Sunny 76 24.4 41 4.8 28 28 W 15 24 29.84 1011 10 16 0.00 0.00
5:35 pm 17:35 Sunny 76 24.6 40 4.2 27 27 W 17 28 29.84 1011 10 16 0.00 0.00
5:55 pm 17:55 Partly Cloudy 76 24.3 41 5.2 29 29 W 10 17 29.84 1011 10 16 0.00 0.00
6:15 pm 18:15 Sunny 72 22.4 39 3.7 30 30 WNW 13 20 29.85 1011 10 16 0.00 0.00
6:35 pm 18:35 Partly Cloudy 75 23.7 41 4.9 30 30 W 13 20 29.85 1011 10 16 0.00 0.00
6:55 pm 18:55 Sunny 75 23.7 42 5.4 31 31 W 8 13 29.85 1011 10 16 0.00 0.00
7:15 pm 19:15 Sunny 73 23 42 5.4 32 32 W 7 11 29.85 1011 10 16 0.00 0.00
7:35 pm 19:35 Partly Cloudy 73 22.6 45 7.3 37 37 W 5 7 29.85 1011 10 16 0.00 0.00
7:55 pm 19:55 Sunny 71 21.7 45 7.4 40 40 W 6 9 29.85 1011 10 16 0.00 0.00
8:15 pm 20:15 Partly Cloudy 70 21.2 45 7.4 41 41 W 3 6 29.86 1011 10 16 0.00 0.00
8:35 pm 20:35 Sunny 68 20.2 47 8.1 46 46 W 5 7 29.86 1011 10 16 0.00 0.00
8:55 pm 20:55 Clear 63 17.2 53 11.9 71 71 W 3 6 29.88 1012 10 16 0.00 0.00
9:15 pm 21:15 Clear 61 16.1 53 11.8 76 76 W 3 6 29.88 1012 10 16 0.00 0.00
9:35 pm 21:35 Clear 59 15.1 53 11.6 80 80 W 3 6 29.90 1012 10 16 0.00 0.00
9:55 pm 21:55 Clear 58 14.7 54 12 84 84 Calm 29.90 1012 10 16 0.00 0.00
10:15 pm 22:15 Partly Cloudy 58 14.2 53 11.7 85 85 Calm 29.91 1013 10 16 0.00 0.00
10:35 pm 22:35 Partly Cloudy 59 14.8 53 11.7 82 82 Calm 29.91 1013 10 16 0.00 0.00
10:55 pm 22:55 Cloudy 58 14.2 54 12 87 87 Calm 29.92 1013 10 16 0.00 0.00
11:15 pm 23:15 Cloudy 58 14.5 53 11.4 82 82 Calm 29.92 1013 10 16 0.00 0.00
11:35 pm 23:35 Mostly Cloudy 59 14.9 54 12.1 83 83 Calm 29.92 1013 10 16 0.00 0.00
11:55 pm 23:55 Mostly Cloudy with Haze 59 15.2 53 11.6 79 79 Calm 29.92 1013 5 8 0.00 0.00

Powered by AerisWeather